Other Public Products
Issued by NWS Charleston, SC

Current Version | Previous Version | Graphics & Text | Print | Product List | Glossary On
Versions: 1 2 3 4 5 6 7 8 9 10 11 12 13 14 15 16 17 18 19 20 21 22 23 24 25 26 27 28 29 30 31 32 33 34 35 36 37 38 39 40 41 42 43 44 45 46 47 48 49 50
000
FPUS82 KCHS 192127
OPUCHS

TEST...KCHS/KSAV Gateway Observations...TEST
National Weather Service Charleston SC
400 PM EST SUN NOV 19 2017

NOTE: "fair" indicates few or no clouds below 12,000 feet with no
significant weather and/or obstructions to visibility.

SCZ050-WAZ558-NCZ071-TXZ119-213-PAZ071-DCZ001-FLZ074-172-MI076-
NYZ176-178-MAZ016-IL014-TNZ027-NJZ106-GAZ044-MD014-192200-

...Gateway Observations for Charleston International...

CITY           SKY/WX    TMP DP  RH WIND       PRES   REMARKS
Chas Airport   MOSUNNY   65  39  38 NW14      29.86R
Seattle        CLOUDY    51  34  52 S8        29.77F
Charlotte      MOSUNNY   56  28  34 NW9       29.92R
Dallas DFW     PTSUNNY   61  26  26 VRB5      30.25F
Dallas Love    PTSUNNY   63  26  24 W6        30.26F
Philladelphia  MOCLDY    50  26  39 W17G28    29.68R
Wash National  CLOUDY    48  27  44 W15G23    29.81R
Baltimore      MOCLDY    46  26  45 W17G32    29.77R
Miami          MOSUNNY   82  57  42 W7        29.89S
Detroit        MOCLDY    36  24  62 W15G24    29.89R WCI  27
Newark         PTCLDY    48  26  42 NW20G28   29.61R
Laguardia      PTCLDY    48  29  47 NW29G38   29.59R
J F K          PTCLDY    47  27  45 NW22G32   29.60R
Boston Logan   PTCLDY    44  28  53 W25G46    29.38R
Ft. Lauderdale MOSUNNY   80  61  52 W9        29.88S
Chicago O`Hare PTSUNNY   34  17  50 W14       30.04R WCI  25
Chicago Midway PTSUNNY   35  17  47 W13G18    30.05R WCI  26
Houston Bush   PTSUNNY   66  31  27 N10G17    30.22F
Houston Hobby  PTSUNNY   65  31  28 N10       30.21F
Nashville      SUNNY     48  19  31 NW9       30.16R
Atlanta        SUNNY     53  33  46 NW15      30.02R

$$

GAZ044-118-TXZ119-213-NCZ071-DCZ001-MDZ014-506-PAZ021-071-NJZ106-
NYZ176-178-MAZ106-OHZ011-021-055-MIZ076-KYZ091-ILZ014-INZ047-
MNZ060-ONZ431-192200-

...Gateway Observations for Savannah International...

CITY           SKY/WX    TMP DP  RH WIND       PRES   REMARKS
Savannah Arpt  MOSUNNY   65  39  38 NW15G21   29.91R
Atlanta        SUNNY     53  33  46 NW15      30.02R
Charlotte      MOSUNNY   56  28  34 NW9       29.92R
Dallas DFW     PTSUNNY   61  26  26 VRB5      30.25F
Houston Bush   PTSUNNY   66  31  27 N10G17    30.22F
Wash National  CLOUDY    48  27  44 W15G23    29.81R
Wash Dulles    CLOUDY    45  28  51 W17G24    29.80R
Baltimore      MOCLDY    46  26  45 W17G32    29.77R
Philadelphia   MOCLDY    50  26  39 W17G28    29.68R
Newark         PTCLDY    48  26  42 NW20G28   29.61R
Laguardia      PTCLDY    48  29  47 NW29G38   29.59R
J F K          PTCLDY    47  27  45 NW22G32   29.60R
Boston         PTCLDY    44  28  53 W25G46    29.38R
Pittsburg      LGT SNOW  36  30  79 NW16      29.84R WCI  26
Akron          CLOUDY    37  26  64 W16G22    29.86R WCI  28
Cleveland      LGT SNOW  34  31  88 W15G29    29.92R VSB 3/4 WCI  24
Cincinnati     PTSUNNY   38  27  64 W15G24    30.05R WCI  29
Columbus       CLOUDY    37  26  65 W20       29.99R WCI  26
Detroit        MOCLDY    36  24  62 W15G24    29.89R WCI  27
Chicago O`Hare PTSUNNY   34  17  50 W14       30.04R WCI  25
Minneapolis    MOSUNNY   40  23  50 SW10      29.91F WCI  33
Indianapolis   MOSUNNY   33  22  63 W15       30.09S WCI  23
Toronto Canada MOCLDY    36  21  55 W24       29.70R WCI  24

$$




USA.gov is the U.S. government's official web portal to all federal, state and local government web resources and services.